Terminal Aerodrome Forecast
Issued by NWS

Current Version | Previous Version | Graphics & Text | Print | Product List | Glossary On
Versions: 1 2 3 4 5 6 7 8 9 10 11 12 13 14 15 16 17 18
000
FTUS41 KILN 251300 AAA
TAFLCK
TAF AMD
KLCK 251310Z 2513/2612 14005KT P6SM SCT050 SCT080 BKN100
     FM251600 15006KT P6SM BKN060
     FM260000 13003KT P6SM SKC=

USA.gov is the U.S. government's official web portal to all federal, state and local government web resources and services.